User: anonymous   Login
Location: Poughquag
(41.6090°N, 73.6820°W)
Time: 11:42:15
(UTC-04:00)
Language:

STARLINK-1353 - Orbit

View from above orbital plane
View from above orbital plane
View from above satellite
View from above satellite

Ground track
Ground track

The orbit data is extracted from the following two-line orbital elements,

1 45537U 20025G   20220.52146160  .00001940  00000-0  13181-3 0  9995
2 45537  53.0024 263.0371 0002576 107.6930 252.4342 15.11136302 17056
Epoch (UTC): 07 August 2020 12:30:54
Eccentricity: 0.0002576
inclination: 53.0024°
perigee height: 531 km
apogee height: 534 km
right ascension of ascending node: 263.0371°
argument of perigee: 107.6930°
revolutions per day: 15.11136302
mean anomaly at epoch: 252.4342°
orbit number at epoch: 1705

The dashed part of the orbit path shows where the satellite is in the earth's shadow,  

DLR